• en Suisse
  • Liste des pays
  • À 7 jours
  • Température de l'eau
  • Carte satellitaire
  • Carte météo
  • Widgets météo
  • user-avatar
    Se connecter

    Météo par heure à Bereznyagi

    Ce jour, 24 Septembre, Lundi

    Heure Température Précipitation Vent Pression Humidité
    00:00 +9°C° 0 mm 3 m/s 744 mmHg 88%
    01:00 +8°C° 0 mm 3 m/s 744 mmHg 89%
    02:00 +8°C° 0 mm 3 m/s 744 mmHg 90%
    03:00 +8°C° 0 mm 3 m/s 744 mmHg 91%
    04:00 +7°C° 0 mm 3 m/s 744 mmHg 92%
    05:00 +7°C° 0 mm 3 m/s 744 mmHg 92%
    06:00 +7°C° 0 mm 3 m/s 744 mmHg 93%
    07:00 +8°C° 0 mm 3 m/s 744 mmHg 88%
    08:00 +9°C° 0 mm 3 m/s 745 mmHg 83%
    09:00 +11°C° 0 mm 4 m/s 745 mmHg 77%
    10:00 +12°C° 0 mm 4 m/s 744 mmHg 72%
    11:00 +13°C° 0 mm 5 m/s 744 mmHg 66%
    12:00 +14°C° 0 mm 5 m/s 744 mmHg 60%
    13:00 +14°C° 0 mm 6 m/s 743 mmHg 59%
    14:00 +14°C° 0 mm 6 m/s 743 mmHg 59%
    15:00 +13°C° 0 mm 6 m/s 742 mmHg 58%
    16:00 +11°C° 0.9 mm 7 m/s 742 mmHg 66%
    17:00 +10°C° 0.9 mm 7 m/s 741 mmHg 73%
    18:00 +9°C° 0.9 mm 7 m/s 740 mmHg 80%
    19:00 +10°C° 1.6 mm 8 m/s 739 mmHg 81%
    20:00 +10°C° 1.6 mm 8 m/s 739 mmHg 83%
    21:00 +10°C° 1.6 mm 9 m/s 738 mmHg 85%
    22:00 +10°C° 0.7 mm 9 m/s 737 mmHg 85%
    23:00 +10°C° 0.7 mm 9 m/s 737 mmHg 85%

    Demain, 25 Septembre, Mardi

    Heure Température Précipitation Vent Pression Humidité
    00:00 +11°C° 0.7 mm 8 m/s 736 mmHg 86%
    01:00 +10°C° 0.3 mm 8 m/s 736 mmHg 86%
    02:00 +9°C° 0.3 mm 7 m/s 736 mmHg 85%
    03:00 +9°C° 0.3 mm 6 m/s 736 mmHg 85%
    04:00 +8°C° 0 mm 6 m/s 736 mmHg 85%
    05:00 +8°C° 0 mm 6 m/s 736 mmHg 84%
    06:00 +7°C° 0 mm 6 m/s 736 mmHg 84%
    07:00 +8°C° 0 mm 6 m/s 736 mmHg 82%
    08:00 +8°C° 0 mm 7 m/s 736 mmHg 80%
    09:00 +8°C° 0 mm 7 m/s 737 mmHg 78%
    10:00 +8°C° 0 mm 7 m/s 737 mmHg 77%
    11:00 +9°C° 0 mm 7 m/s 738 mmHg 77%
    12:00 +9°C° 0 mm 7 m/s 738 mmHg 76%
    13:00 +9°C° 0.1 mm 7 m/s 739 mmHg 75%
    14:00 +9°C° 0.1 mm 7 m/s 739 mmHg 74%
    15:00 +9°C° 0.1 mm 7 m/s 739 mmHg 72%
    16:00 +8°C° 0.2 mm 7 m/s 740 mmHg 74%
    17:00 +8°C° 0.2 mm 7 m/s 741 mmHg 76%
    18:00 +6°C° 0.2 mm 7 m/s 741 mmHg 78%
    19:00 +6°C° 0.2 mm 7 m/s 742 mmHg 79%
    20:00 +6°C° 0.2 mm 7 m/s 742 mmHg 80%
    21:00 +5°C° 0.2 mm 7 m/s 743 mmHg 80%
    22:00 +5°C° 0.2 mm 7 m/s 744 mmHg 81%
    23:00 +5°C° 0.2 mm 7 m/s 744 mmHg 81%

    Après-demain, 26 Septembre, Mercredi

    Heure Température Précipitation Vent Pression Humidité
    00:00 +5°C° 0.2 mm 7 m/s 745 mmHg 81%
    01:00 +4°C° 0 mm 6 m/s 745 mmHg 81%
    02:00 +4°C° 0 mm 6 m/s 746 mmHg 82%
    03:00 +4°C° 0 mm 6 m/s 747 mmHg 82%
    04:00 +4°C° 0 mm 6 m/s 747 mmHg 83%
    05:00 +3°C° 0 mm 6 m/s 748 mmHg 83%
    06:00 +3°C° 0 mm 5 m/s 749 mmHg 84%
    07:00 +3°C° 0 mm 6 m/s 750 mmHg 80%
    08:00 +3°C° 0 mm 6 m/s 750 mmHg 77%
    09:00 +4°C° 0 mm 6 m/s 751 mmHg 74%
    10:00 +5°C° 0 mm 6 m/s 752 mmHg 68%
    11:00 +5°C° 0 mm 6 m/s 752 mmHg 63%
    12:00 +7°C° 0 mm 5 m/s 753 mmHg 57%
    13:00 +8°C° 0 mm 5 m/s 753 mmHg 54%
    14:00 +8°C° 0 mm 5 m/s 753 mmHg 50%
    15:00 +8°C° 0 mm 5 m/s 753 mmHg 47%
    16:00 +7°C° 0 mm 4 m/s 753 mmHg 51%
    17:00 +7°C° 0 mm 3 m/s 753 mmHg 55%
    18:00 +7°C° 0 mm 3 m/s 753 mmHg 59%
    19:00 +5°C° 0 mm 3 m/s 753 mmHg 61%
    20:00 +4°C° 0 mm 3 m/s 753 mmHg 63%
    21:00 +4°C° 0 mm 3 m/s 753 mmHg 65%
    22:00 +4°C° 0 mm 4 m/s 752 mmHg 65%
    23:00 +4°C° 0 mm 4 m/s 752 mmHg 64%

    27 Septembre, Jeudi

    Heure Température Précipitation Vent Pression Humidité
    00:00 +3°C° 0 mm 5 m/s 751 mmHg 63%
    01:00 +3°C° 0 mm 6 m/s 751 mmHg 64%
    02:00 +3°C° 0 mm 6 m/s 750 mmHg 65%
    03:00 +4°C° 0 mm 7 m/s 749 mmHg 66%
    04:00 +4°C° 0.2 mm 7 m/s 748 mmHg 68%
    05:00 +4°C° 0.2 mm 8 m/s 748 mmHg 69%
    06:00 +4°C° 0.2 mm 8 m/s 747 mmHg 70%
    07:00 +3°C° 1 mm 9 m/s 746 mmHg 73%
    08:00 +3°C° 1 mm 9 m/s 745 mmHg 75%
    09:00 +3°C° 1 mm 10 m/s 745 mmHg 78%
    10:00 +3°C° 0.9 mm 9 m/s 744 mmHg 79%
    11:00 +5°C° 0.9 mm 9 m/s 744 mmHg 81%
    12:00 +5°C° 0.9 mm 9 m/s 744 mmHg 82%
    13:00 +6°C° 0.1 mm 9 m/s 744 mmHg 81%
    14:00 +6°C° 0.1 mm 8 m/s 744 mmHg 80%
    15:00 +7°C° 0.1 mm 8 m/s 744 mmHg 80%
    16:00 +8°C° 0 mm 7 m/s 744 mmHg 81%
    17:00 +8°C° 0 mm 6 m/s 744 mmHg 82%
    18:00 +7°C° 0 mm 6 m/s 744 mmHg 83%
    19:00 +7°C° 0 mm 6 m/s 744 mmHg 86%
    20:00 +7°C° 0 mm 6 m/s 744 mmHg 88%
    21:00 +7°C° 0 mm 5 m/s 744 mmHg 90%
    22:00 +7°C° 0 mm 5 m/s 744 mmHg 90%
    23:00 +7°C° 0 mm 5 m/s 744 mmHg 90%

    28 Septembre, Vendredi

    Heure Température Précipitation Vent Pression Humidité
    00:00 +7°C° 0 mm 5 m/s 744 mmHg 90%
    01:00 +8°C° 0 mm 5 m/s 743 mmHg 91%
    02:00 +8°C° 0 mm 5 m/s 743 mmHg 91%
    03:00 +8°C° 0 mm 5 m/s 742 mmHg 91%
    04:00 +9°C° 0.1 mm 6 m/s 742 mmHg 91%
    05:00 +9°C° 0.1 mm 7 m/s 741 mmHg 90%
    06:00 +10°C° 0.1 mm 8 m/s 741 mmHg 89%
    07:00 +11°C° 0.1 mm 8 m/s 740 mmHg 87%
    08:00 +11°C° 0.1 mm 9 m/s 740 mmHg 85%
    09:00 +12°C° 0.1 mm 9 m/s 739 mmHg 83%
    10:00 +12°C° 0.1 mm 10 m/s 739 mmHg 82%
    11:00 +12°C° 0.1 mm 10 m/s 739 mmHg 82%
    12:00 +12°C° 0.1 mm 10 m/s 739 mmHg 81%
    13:00 +12°C° 0.3 mm 10 m/s 739 mmHg 81%
    14:00 +12°C° 0.3 mm 10 m/s 740 mmHg 81%
    15:00 +12°C° 0.3 mm 9 m/s 740 mmHg 82%
    16:00 +11°C° 0.1 mm 8 m/s 741 mmHg 80%
    17:00 +10°C° 0.1 mm 6 m/s 742 mmHg 78%
    18:00 +9°C° 0.1 mm 5 m/s 742 mmHg 76%
    19:00 +8°C° 0 mm 4 m/s 743 mmHg 79%
    20:00 +8°C° 0 mm 4 m/s 744 mmHg 82%
    21:00 +8°C° 0 mm 3 m/s 745 mmHg 84%
    22:00 +7°C° 0 mm 3 m/s 745 mmHg 85%
    23:00 +7°C° 0 mm 3 m/s 746 mmHg 86%

    29 Septembre, Samedi

    Heure Température Précipitation Vent Pression Humidité
    00:00 +7°C° 0 mm 3 m/s 746 mmHg 87%
    01:00 +5°C° 0 mm 3 m/s 747 mmHg 88%
    02:00 +5°C° 0 mm 3 m/s 747 mmHg 89%
    03:00 +5°C° 0 mm 3 m/s 747 mmHg 91%
    04:00 +4°C° 0 mm 3 m/s 748 mmHg 91%
    05:00 +5°C° 0 mm 2 m/s 748 mmHg 92%
    06:00 +4°C° 0 mm 2 m/s 749 mmHg 93%
    07:00 +5°C° 0 mm 2 m/s 749 mmHg 88%
    08:00 +6°C° 0 mm 2 m/s 750 mmHg 83%
    09:00 +7°C° 0 mm 3 m/s 750 mmHg 77%
    10:00 +8°C° 0 mm 3 m/s 750 mmHg 70%
    11:00 +9°C° 0 mm 3 m/s 750 mmHg 63%
    12:00 +10°C° 0 mm 3 m/s 751 mmHg 55%
    13:00 +10°C° 0 mm 3 m/s 751 mmHg 52%
    14:00 +11°C° 0 mm 3 m/s 751 mmHg 50%
    15:00 +11°C° 0 mm 3 m/s 751 mmHg 47%
    16:00 +10°C° 0 mm 3 m/s 751 mmHg 50%
    17:00 +9°C° 0 mm 2 m/s 751 mmHg 54%
    18:00 +8°C° 0 mm 2 m/s 752 mmHg 57%
    19:00 +8°C° 0 mm 2 m/s 752 mmHg 59%
    20:00 +7°C° 0 mm 2 m/s 753 mmHg 60%
    21:00 +7°C° 0 mm 2 m/s 753 mmHg 62%
    22:00 +6°C° 0 mm 2 m/s 754 mmHg 64%
    23:00 +5°C° 0 mm 2 m/s 754 mmHg 66%
    Voir plus

    3.3.7123123